User: anonymous   Login
Location: Unspecified
(0.0000°N, 0.0000°E)
Time: 00:08:06
(UTC+00:00)
Language:

HULIANWANG DIGUI-36 - Orbit

View from above orbital plane
View from above orbital plane
View from above satellite
View from above satellite

Ground track
Ground track

The orbit is defined by the following mean orbital elements,

1 64957U          26145.58288571 +.00000000 +00000-0 +14412-3 0 00001
2 64957  86.4944 290.1232 0001992  92.3765 267.7597 13.24405978    06
Epoch (UTC): 25 May 2026 13:59:21
Eccentricity: 0.0001992
inclination: 86.4944°
perigee height: 1166 km
apogee height: 1169 km
right ascension of ascending node: 290.1232°
argument of perigee: 92.3765°
revolutions per day: 13.24405978
mean anomaly at epoch: 267.7597°

The dashed part of the orbit path shows where the satellite is in the earth's shadow,  

DLR